Location: Villavaquer�n
(41.6636°N, 4.4629°W)
Time: 02:46:09
(UTC+00:00)

Daily predictions for brighter satellites

Satellite Brightness Start Highest point End
(mag) Time Altitude Azimuth Time Altitude Azimuth Time Altitude Azimuth
ATLAS 2AS CENTAUR R/B 4.1 03:35:15 39° ENE 03:35:15 39° ENE 03:40:20 10° NE
Cosmos 2344 4.3 04:11:26 42° N 04:11:26 42° N 04:16:50 10° NNE
SL-16 R/B 3.8 04:10:21 31° E 04:10:21 31° E 04:14:11 10° NE
Lacrosse 5 4.0 04:19:07 23° ENE 04:19:07 23° ENE 04:21:06 10° NE
Gbstr 26 Del rocket 4.5 04:27:22 63° NE 04:27:22 63° NE 04:33:48 10° NE
ATLAS 3B R/B 3.2 04:26:33 50° NNE 04:27:13 51° NE 04:33:57 10° SE
NOSS 3-2 (C) 3.9 04:37:33 80° SSW 04:37:33 80° SSW 04:45:47 10° SSE
Cosmos 2341 Rocket 4.2 04:35:54 10° N 04:42:06 65° E 04:48:14 10° SSE
CENTAUR R/B 3.1 04:41:52 63° NNW 04:43:33 89° NE 04:52:22 10° SSE
NOSS 3-4 (A) 3.8 04:50:16 53° N 04:50:16 53° N 04:55:11 10° NNE
NOSS 3-4 (C) 3.8 04:50:20 53° N 04:50:20 53° N 04:55:17 10° NNE
ALOS 4.0 04:52:18 10° NNE 04:56:27 31° E 05:00:34 10° SSE
Cosmos 158 Rocket 4.3 04:59:05 57° ENE 04:59:05 57° ENE 05:03:16 10° NNE
Orbus 7S? 4.0 05:07:27 61° E 05:07:27 61° E 05:13:11 10° SE
Cosmos 2263 Rocket 2.3 05:09:01 59° SSW 05:09:01 59° SSW 05:13:43 10° SSE
Cosmos 2322 Rocket 2.1 05:07:42 69° SSW 05:08:26 88° ESE 05:14:10 10° NNE
STARLINK 1063 4.4 05:11:49 51° E 05:11:49 51° E 05:15:07 10° ENE
STARLINK 1064 4.1 05:16:35 58° E 05:16:35 58° E 05:20:05 10° NE
RESURS DK-1 3.1 05:17:04 48° NE 05:17:04 48° NE 05:20:08 10° NNE
COSMOS 2455 4.3 05:19:02 22° NNW 05:19:02 22° NNW 05:22:00 10° N
Cosmos 1844 Rocket 4.3 05:13:03 10° N 05:18:05 32° ENE 05:23:06 10° ESE
CZ-2C R/B 4.5 05:13:18 10° N 05:14:24 16° N 05:14:24 16° N
STARLINK 1041 3.8 05:21:23 68° E 05:21:23 68° E 05:25:06 10° NE
ATLAS 2AS CENTAUR R/B 3.4 05:22:43 41° WNW 05:23:50 44° NW 05:31:23 10° NNE
Meteor 1-11 4.3 05:20:12 10° N 05:25:51 77° E 05:31:32 10° SSE
STARLINK 1038 3.6 05:26:10 78° ENE 05:26:10 78° ENE 05:30:04 10° NE
Cosmos 2366 rocket 4.0 05:20:25 10° N 05:26:49 83° E 05:33:10 10° S
STARLINK 1046 3.5 05:30:57 87° NNE 05:30:57 87° NNE 05:35:03 10° NE
SKYMED 2 3.5 05:30:35 10° SSE 05:34:54 89° E 05:37:23 25° NNW
STARLINK 1039 3.4 05:35:44 79° WNW 05:35:52 81° NW 05:40:02 10° NE
Cosmos 2333 Rocket 4.4 05:31:31 10° SSE 05:36:14 26° ESE 05:40:56 10° NE
USA 32 4.0 05:33:40 18° NNW 05:37:27 57° W 05:42:34 10° SSW
FENGYUN 3A 3.7 05:32:13 10° NNE 05:37:40 78° ESE 05:43:05 10° S
STARLINK 1045 3.4 05:40:31 69° W 05:40:52 75° NW 05:45:00 10° NE
Cosmos 1900 4.2 05:41:05 36° NNW 05:43:08 86° WSW 05:48:03 10° SSE
Cosmos 1680 Rocket 4.5 05:45:41 29° NW 05:45:41 29° NW 05:49:18 10° N
STARLINK 1050 3.5 05:45:26 59° WNW 05:45:55 66° NW 05:50:03 10° NE
Lacrosse 5 rocket 3.5 05:47:30 15° NNW 05:49:57 22° NNE 05:53:23 10° ENE
Cosmos 1300 3.1 05:46:12 10° S 05:49:58 62° E 05:53:45 10° NNE
STARLINK 1055 3.6 05:50:14 52° WNW 05:50:54 61° NW 05:55:01 10° NE
Cosmos 2360 Rocket 2.1 05:46:09 10° SSW 05:51:50 82° WNW 05:57:32 10° NNE
SL-16 R/B 2.7 05:52:18 34° WNW 05:53:11 36° WNW 05:58:24 10° N
Cosmos 1371 Rocket 4.2 05:51:20 30° NW 05:53:32 48° WSW 05:58:39 10° S
Cosmos 2219 Rocket 3.9 05:48:50 10° SSE 05:53:54 35° ESE 05:59:01 10° NE
STARLINK 1022 3.7 05:54:59 45° W 05:55:52 56° NNW 05:59:57 10° NE
SL-8 Rocket 4.2 05:52:39 10° NNW 05:58:27 44° W 06:04:12 10° SSW
Lacrosse 5 2.7 05:58:20 29° NW 05:59:20 31° NNW 06:03:53 10° NNE
Cosmos 1980 Rocket 4.2 06:00:54 11° NNW 06:00:54 11° NNW 06:01:33 10° NNW
Cosmos 1420 Rocket 4.1 05:54:42 10° NNW 06:00:03 79° ENE 06:05:22 10° SSE
STARLINK 1042 3.8 05:59:43 39° W 06:00:49 52° NNW 06:04:52 10° NE
Cosmos 2322 4.0 05:55:48 10° SSW 06:01:25 69° ESE 06:07:03 10° NNE
PSLV R/B 4.1 06:00:36 10° N 06:04:01 37° WNW 06:04:01 37° WNW
BREEZE-M DEB (TANK) 4.4 06:02:27 28° NW 06:04:34 79° NNE 06:15:23 10° ESE
Cosmos 1076 Rocket 4.4 06:00:22 10° N 06:04:39 51° E 06:08:53 10° SSE
STARLINK 1056 3.9 06:04:35 34° W 06:05:54 48° NNW 06:09:56 10° NE
NOAA 6 4.1 06:01:06 10° NNE 06:06:20 85° ESE 06:11:31 10° SSW
ADEOS Rocket 3.4 06:04:06 10° SSE 06:09:30 61° ENE 06:15:17 10° N
CZ-4B R/B 3.3 06:04:02 10° NNE 06:09:33 82° ESE 06:14:55 10° SSW
MOS 1-B 4.3 06:04:17 10° N 06:09:59 61° WNW 06:15:41 10° SSW
STARLINK 1054 4.0 06:09:18 30° W 06:10:50 45° NNW 06:14:50 10° NE
Cosmos 1844 4.0 06:06:34 10° NNW 06:12:08 67° ENE 06:17:39 10° SSE
DMSP B5D1-3 4.5 06:07:10 10° SSE 06:12:17 89° W 06:17:24 10° NNW
Cosmos 2058 Rocket 3.9 06:12:30 26° W 06:12:59 27° WNW 06:16:42 10° NNW
STARLINK 1062 4.1 06:14:05 27° W 06:15:51 42° NNW 06:19:49 10° NE
Okean O Rocket 1.5 06:12:57 10° N 06:17:23 75° WNW 06:21:47 10° SSW
ATLAS 3B R/B 3.3 06:13:51 20° WNW 06:17:41 34° WSW 06:23:48 10° S
METEOR-M 4.3 06:13:10 10° N 06:18:16 46° WNW 06:23:20 10° SW
STARLINK 1053 4.2 06:18:55 24° W 06:20:53 39° NNW 06:24:50 10° NE
FALCON 9 DEB 4.4 06:20:43 23° WSW 06:21:42 26° SW 06:24:40 10° S
Cosmos 1174 3.4 06:18:08 10° SW 06:22:12 77° WNW 06:25:34 10° NNE
Cosmos 2237 4.4 06:16:46 10° SW 06:22:18 49° WNW 06:27:51 10° NNE
Cosmos 2058 3.3 06:18:06 10° N 06:22:18 70° E 06:26:30 10° SSE
COSMO-SKYMED 1 3.5 06:19:27 10° SSW 06:23:08 27° W 06:26:01 14° NW
Cosmos 2084 Rocket 3.5 06:21:17 10° SW 06:25:37 89° SE 06:30:03 10° NE
STARLINK 1061 4.3 06:23:40 21° W 06:25:52 37° NNW 06:29:45 10° NE
EXPRESS MD2 4.2 06:24:44 15° NNW 06:25:57 19° N 06:27:44 10° ENE
In-Cosmos 22 Rocket 4.2 06:23:10 10° N 06:28:32 79° E 06:33:50 10° SSE
Cosmos 1892 3.6 06:25:12 10° N 06:28:54 50° E 06:32:35 10° SSE
STARLINK 1067 4.4 06:28:26 19° W 06:30:51 35° NNW 06:34:41 10° NE
COSMOS 2428 3.1 06:26:23 10° SSW 06:32:03 70° ESE 06:37:46 10° NNE
Cosmos 1048 Rocket 4.0 06:27:21 10° SSW 06:32:38 89° ESE 06:37:52 10° NNE
Cosmos 1821 Rocket 3.9 06:26:57 10° N 06:33:05 76° W 06:39:09 10° S
USA 215 3.5 06:26:44 10° ESE 06:33:14 72° NE 06:39:46 10° NW
CENTAUR R/B 4.3 06:29:07 15° WNW 06:33:36 23° WSW 06:39:55 10° SSW
ALOS 3.1 06:29:50 10° N 06:33:46 27° WNW 06:37:40 10° SW
CZ-3 R/B 3.8 06:20:34 12° W 06:34:08 28° SW 06:40:08 10° SSE
STARLINK 1058 4.5 06:33:11 17° W 06:35:50 33° NNW 06:39:38 10° NE
Nadezhda 3 Rocket 4.0 06:31:02 10° SSW 06:37:07 62° W 06:43:17 10° N
Helios 1A Rocket 3.0 06:35:17 10° N 06:39:21 56° WNW 06:43:24 10° SSW
Cosmos 371 Rocket 3.6 06:39:35 10° NNW 06:44:26 69° ENE 06:49:13 10° SSE
CZ-4 R/B 4.4 06:42:40 10° NE 06:45:58 22° E 06:49:13 10° SE
Cosmos 2278 Rocket 3.5 06:43:08 10° N 06:48:25 39° ENE 06:53:41 10° SE
Cosmos-2242 3.1 06:48:40 10° S 06:53:03 89° E 06:57:28 10° N
Cosmos 2322 Rocket 3.7 06:49:49 10° W 06:53:17 16° NW 06:56:47 10° N
RESURS DK-1 4.3 06:53:02 10° WNW 06:54:33 12° NW 06:56:06 10° NNW
Cosmos 2237 Rocket 3.7 06:52:24 10° S 06:57:42 43° ESE 07:03:01 10° NE
Cosmos 1934 Rocket 4.0 06:55:31 10° N 07:01:40 74° W 07:07:52 10° S
Cosmos 1437 4.4 07:00:02 10° NW 07:01:53 15° W 07:03:43 10° SW
Cosmos 1844 Rocket 3.3 06:56:49 10° NW 07:02:00 38° WSW 07:07:10 10° S
Meteor 2-10 Rocket 4.1 06:56:56 10° S 07:02:40 71° E 07:08:16 10° NNE
Cosmos 1766 Rocket 3.9 06:58:32 10° N 07:02:52 70° E 07:07:10 10° SSE
